Tracking 31027 objects as of 19-Jul-2025
HD Live streaming from Space Station
objects crossing your sky now

NOAA 16 DEB

Track NOAA 16 DEB now!
10-day predictions


NORAD ID: 41262
Int'l Code: 2000-055FN
Perigee: 798.3 km
Apogee: 866.4 km
Inclination: 98.8 °
Period: 101.4 minutes
Semi major axis: 7203 km
RCS: Unknown
Launch date: September 21, 2000
Source: United States (US)
Launch site: AIR FORCE WESTERN TEST RANGE (AFWTR)

Note: This is SATELLITE DEBRIS
Your satellite tracking list
SPACEBEE-134
Track 1 satellite(s)




NASA's NSSDC Master Catalog

Two Line Element Set (TLE):
1 41262U 00055FN  25196.36565864  .00004182  00000-0  19627-2 0  9993
2 41262  98.7991 222.4423 0047317 198.9920 160.9493 14.20042376491723
Source of the keplerian elements: AFSPC